Fairbanks, AK

12:36 AM AKST on December 18, 2017 (GMT -0900)
Fairbanks International

Weather History for PAFA - January, 2014

Change the Weather History Date:

Thursday, January 30, 2014

  Actual Average Record
Temperature  
Mean Temperature 1 °F -7 °F  
Max Temperature 7 °F 3 °F 38 °F (1985)
Min Temperature -6 °F -16 °F -56 °F (1947)
Degree Days  
Heating Degree Days 64 72  
Month to date heating degree days 1705 2190  
Since 1 July heating degree days 7389 8462  
Cooling Degree Days 0 0  
Month to date cooling degree days 0 0  
Year to date cooling degree days 0 0  
Moisture  
Dew Point -4 °F    
Average Humidity 78    
Maximum Humidity 87    
Minimum Humidity 61    
Precipitation  
Precipitation 0.00 in 0.02 in 0.34 in (1979)
Month to date precipitation 0.22 0.56  
Year to date precipitation 0.22 0.56  
Snow  
Snow 0.00 in 0.30 in 5.50 in (1979)
Month to date snowfall 2.5 10.0  
Since 1 July snowfall 35.8 47.9  
Snow Depth 16.00 in    
Sea Level Pressure  
Sea Level Pressure 30.23 in    
Wind  
Wind Speed 1 mph (NNE)    
Max Wind Speed 5 mph    
Max Gust Speed -    
Visibility 3 miles    
Events Fog    
T = Trace of Precipitation, MM = Missing Value Source: NWS Daily Summary

Daily Weather History Graph

Daily Weather History Graph

Search for Another Location

Airport or City:

Trip Planner

Search our weather history database for the weather conditions in past years. The results will help you decide how hot, cold, wet, or windy it might be!

Date:

Astronomy

Jan. 30, 2014 Rise Set
Actual Time 9:42 AM AKST 4:27 PM AKST
Civil Twilight 8:42 AM AKST 5:27 PM AKST
Nautical Twilight 7:41 AM AKST 6:29 PM AKST
Astronomical Twilight 6:44 AM AKST 7:26 PM AKST
Moon 8:53 AM AKST (1/30) 5:21 PM AKST (1/30)
Length of Visible Light 8h 45m
Length of Day
6h 45m
Waning Crescent, 0% of the Moon is Illuminated
Jan 30
Waning Crescent
Jan 30
New
Feb 6
First Quarter
Feb 14
Full
Feb 22
Last Quarter

Hourly Weather History & Observations

Time (AKST) Temp. Windchill Dew Point Humidity Pressure Visibility Wind Dir Wind Speed Gust Speed Precip Events Conditions
12:02 AM 1.0 °F - -5.1 °F 75% 30.14 in 5.0 mi Calm Calm - N/A   Mostly Cloudy
12:10 AM 1.0 °F - -2.9 °F 83% 30.14 in 5.0 mi Calm Calm - N/A   Mostly Cloudy
12:31 AM 1.0 °F - -2.9 °F 83% 30.15 in 3.0 mi Calm Calm - N/A   Mostly Cloudy
12:53 AM 3.0 °F - -0.9 °F 84% 30.19 in 1.5 mi Calm Calm - N/A   Mostly Cloudy
1:29 AM -0.9 °F -8.9 °F -6.0 °F 79% 30.16 in 2.5 mi West 3.5 mph - N/A   Mostly Cloudy
1:53 AM 1.0 °F - -4.0 °F 79% 30.20 in 1.0 mi Calm Calm - N/A   Mostly Cloudy
2:01 AM 1.0 °F - -2.9 °F 83% 30.16 in 1.0 mi Calm Calm - N/A   Mostly Cloudy
2:19 AM 1.0 °F - -2.9 °F 83% 30.16 in 0.5 mi Calm Calm - N/A Fog Light Freezing Fog
3:53 AM 1.9 °F - -2.0 °F 83% 30.22 in 0.2 mi Calm Calm - N/A Fog Light Freezing Fog
4:53 AM 1.9 °F - -2.0 °F 83% 30.23 in 0.2 mi Calm Calm - N/A Fog Light Freezing Fog
5:53 AM 1.0 °F - -2.0 °F 87% 30.23 in 0.2 mi Calm Calm - N/A Fog Light Freezing Fog
6:53 AM 1.0 °F - -2.9 °F 83% 30.24 in 0.2 mi Calm Calm - N/A Fog Light Freezing Fog
7:15 AM -0.0 °F - -5.1 °F 79% 30.19 in 0.2 mi Calm Calm - N/A Fog Light Freezing Fog
7:35 AM -0.0 °F - -5.1 °F 79% 30.20 in 0.2 mi Calm Calm - N/A Fog Light Freezing Fog
7:53 AM -0.0 °F - -5.1 °F 79% 30.25 in 0.2 mi Calm Calm - N/A Fog Light Freezing Fog
8:15 AM 1.9 °F -5.6 °F -2.0 °F 83% 30.20 in 1.0 mi NNW 3.5 mph - N/A   Mist
8:53 AM 3.9 °F -3.4 °F -2.9 °F 73% 30.25 in 0.5 mi NNE 3.5 mph - N/A   Mist
9:13 AM 3.9 °F -5.3 °F -0.9 °F 80% 30.21 in 0.2 mi NE 4.6 mph - N/A Fog Light Freezing Fog
9:43 AM 3.0 °F -4.4 °F -2.0 °F 80% 30.21 in 0.5 mi NE 3.5 mph - N/A Fog Light Freezing Fog
9:53 AM 3.0 °F -4.4 °F -2.9 °F 76% 30.26 in 0.5 mi ENE 3.5 mph - N/A   Mostly Cloudy
9:59 AM 3.0 °F - -2.9 °F 76% 30.21 in 6.0 mi Calm Calm - N/A   Mostly Cloudy
10:26 AM 1.0 °F - -4.0 °F 79% 30.22 in 1.0 mi Calm Calm - N/A   Mostly Cloudy
10:53 AM 1.9 °F - -2.9 °F 80% 30.27 in 1.0 mi Calm Calm - N/A   Mostly Cloudy
11:53 AM 3.0 °F - -0.9 °F 84% 30.28 in 1.0 mi Calm Calm - N/A   Mostly Cloudy
12:53 PM 3.9 °F - -2.0 °F 76% 30.27 in 1.0 mi Calm Calm - N/A   Mostly Cloudy
1:00 PM 3.9 °F - -2.0 °F 76% 30.23 in 1.0 mi Calm Calm - N/A   Mostly Cloudy
1:16 PM 5.0 °F - -0.0 °F 80% 30.23 in 10.0 mi Calm Calm - N/A Fog Patches of Fog
1:53 PM 5.0 °F - -0.0 °F 80% 30.28 in 6.0 mi Calm Calm - N/A   Scattered Clouds
2:53 PM 7.0 °F - 1.9 °F 80% 30.27 in 10.0 mi Calm Calm - N/A Fog Patches of Fog
3:53 PM 5.0 °F - -0.9 °F 76% 30.27 in 10.0 mi Calm Calm - N/A   Partly Cloudy
4:35 PM 1.9 °F - -4.0 °F 76% 30.23 in 7.0 mi Calm Calm - N/A Fog Patches of Fog
4:53 PM 3.0 °F - -2.0 °F 80% 30.28 in 7.0 mi Calm Calm - N/A Fog Patches of Fog
5:53 PM -0.0 °F - -6.0 °F 76% 30.28 in 6.0 mi Calm Calm - N/A   Partly Cloudy
6:53 PM -2.0 °F - -9.0 °F 72% 30.28 in 6.0 mi Calm Calm - N/A   Partly Cloudy
7:53 PM -2.0 °F - -9.0 °F 72% 30.30 in 6.0 mi Calm Calm - N/A   Partly Cloudy
8:53 PM -2.9 °F - -9.0 °F 75% 30.29 in 7.0 mi Calm Calm - N/A   Partly Cloudy
9:53 PM -5.1 °F - -11.9 °F 72% 30.30 in 7.0 mi Calm Calm - N/A   Partly Cloudy
10:53 PM -4.0 °F - -11.0 °F 72% 30.30 in 7.0 mi Calm Calm - N/A   Partly Cloudy
11:53 PM -5.1 °F - -11.0 °F 76% 30.30 in 7.0 mi Calm Calm - N/A   Partly Cloudy